Location: Lake Almanor
(40.2485°N, 121.1442°W)
Time: 22:21:19
(UTC-08:00)

STARLINK-1123 - Pass Details

Date: 29 January 2020
Orbit: 548 x 551 km, 53.0° (Epoch: 22 February)

Event Time Altitude Azimuth Distance (km) Brightness Sun altitude
Rises 18:08:14 0° 313° (NW) 2,724 7.6 -9.7°
Maximum altitude 18:14:20 28° 26° (NNE) 1,061 4.7 -10.8°
Enters shadow 18:16:46 16° 75° (ENE) 1,465 5.1 -11.2°
